Location: Katzenstein
(51.7484°N, 10.2155°E)
Time: 23:45:45
(UTC+00:00)

Cosmos 2369 Rocket - Pass Details

Date: 17 February 2020
Orbit: 827 x 854 km, 71.0° (Epoch: 09 April)

Event Time Altitude Azimuth Distance (km) Brightness Sun altitude
Exits shadow 03:08:07 16° 346° (NNW) 2,081 4.3 -31.6°
Maximum altitude 03:12:07 36° 46° (NE) 1,326 3.6 -31.0°
Drops below altitude 10° 03:17:22 10° 112° (ESE) 2,485 5.2 -30.3°
Sets 03:20:01 0° 121° (ESE) 3,417 5.9 -29.9°
